Regional Weather Roundup
Issued by NWS

Home | Current Version | Previous Version | Text Only | Print | Product List | Glossary On
Versions: 1 2 3 4 5 6 7 8 9 10 11 12 13 14 15 16 17 18 19 20 21 22 23 24 25 26 27 28 29 30 31 32 33 34 35 36 37 38 39 40 41 42 43 44 45 46 47 48 49 50
000
ASUS42 KKEY 182010
RWRKEY

FLORIDA REGIONAL WEATHER ROUNDUP FOR THE FLORIDA KEYS
NATIONAL WEATHER SERVICE KEY WEST FLORIDA
300 PM EST THU DEC 18 2014

...SOUTH FLORIDA AND THE KEYS...

CITY           SKY/WX    TMP DP  RH WIND       PRES   REMARKS
FORT MYERS     SUNNY     72  56  57 NW10      30.10F
SW REGIONAL AP SUNNY     71  58  63 NW7       30.10F
NAPLES         SUNNY     70  59  68 NW9       30.10F
MIAMI          MOSUNNY   78  56  46 VRB6      30.09F
WEST KENDALL   SUNNY     78  58  49 W7        30.08F
HOMESTEAD      SUNNY     78  60  55 NE6       30.08F
MARATHON       SUNNY     71  63  75 N7        30.09S
BOCA CHICA NAS MOSUNNY   74  63  68 N10       30.09F
KEY WEST INTL  SUNNY     75  62  64 N12       30.09F

...INTERNATIONAL WEATHER...

CITY           SKY/WX    TMP DP  RH WIND       PRES   REMARKS
NASSAU BAHAMAS NOT AVBL
CANCUN MEXICO  MOSUNNY   79  66  65 NE9       30.01F
COZUMEL MEXICO MOSUNNY   77  66  69 E9        30.00F

ADJACENT COASTAL WATERS...

STATION/POSITION TIME  SKY/WX   TEMP    WIND        PRES    WAVE
                                AIR SEA DIR/SP/G            HT/PER
                 (UTC)          (F)     (DEG/KT/KT) (MB)    (FT/S)
PULASKI SHOAL LI 1900            71      60/  7/  7 1019.3F
SAND KEY         1939            70      20/ 13/ 15 1018.8F
SOMBRERO KEY     2000            72      10/  8/  9 1019.4F
LONG KEY         1854            69 69   CALM  /  6 1019.8F
MOLASSES REEF    2000            72 77   10/  6/  7 1018.7F
FOWEY ROCKS      2000            72 77  110/  3/  4 1018.8F
Buoy 42080       NOT AVBL

$$


USA.gov is the U.S. government's official web portal to all federal, state and local government web resources and services.